Weather History for Riverside March, CA

Change the Weather History Date:

Tuesday, March 12, 2013

  Actual Average Record
Temperature  
Mean Temperature 58 °F -  
Max Temperature 82 °F 68 °F 90 °F (2007)
Min Temperature 35 °F 42 °F 33 °F (1999)
Degree Days  
Heating Degree Days 6    
Growing Degree Days 8 (Base 50)    
Moisture  
Dew Point 43 °F    
Average Humidity 64    
Maximum Humidity 91    
Minimum Humidity 30    
Precipitation  
Precipitation 0.00 in - - ()
Sea Level Pressure  
Sea Level Pressure 30.06 in    
Wind  
Wind Speed 2 mph (NW)    
Max Wind Speed 10 mph    
Max Gust Speed -    
Visibility 10 miles    
Events      
Averages and records for this station are not official NWS values.
T = Trace of Precipitation, MM = Missing Value Source: NWS Daily Summary

Daily Weather History Graph

Daily Weather History Graph

Search for Another Location

Airport:

Trip Planner

Search our weather history database for the weather conditions in past years. The results will help you decide how hot, cold, wet, or windy it might be!

Date:

Astronomy

Mar. 12, 2013 Rise Set
Actual Time 7:03 AM PDT 6:54 PM PDT
Civil Twilight 6:38 AM PDT 7:19 PM PDT
Nautical Twilight 6:09 AM PDT 7:48 PM PDT
Astronomical Twilight 5:40 AM PDT 8:17 PM PDT
Moon 7:16 AM PDT (3/12) 8:08 PM PDT (3/12)
Length of Visible Light 12h 41m
Length of Day
11h 51m
New Moon, 1% of the Moon is Illuminated
Mar 12
New Moon
Mar 19
First Quarter
Mar 27
Full
Apr 2
Last Quarter
Apr 10
New

Hourly Weather History & Observations

Time (PDT) Temp. Dew Point Humidity Pressure Visibility Wind Dir Wind Speed Gust Speed Precip Events Conditions
12:58 AM 44.2 °F 39.0 °F 82% 30.09 in 10.0 mi NW 1.2 mph - N/A   Clear
1:58 AM 40.6 °F 37.0 °F 87% 30.08 in 10.0 mi Calm Calm - N/A   Clear
2:58 AM 41.0 °F 37.2 °F 86% 30.07 in 10.0 mi Calm Calm - N/A   Clear
3:58 AM 38.1 °F 35.4 °F 90% 30.05 in 10.0 mi Calm Calm - N/A   Clear
4:58 AM 37.4 °F 34.7 °F 90% 30.05 in 10.0 mi Calm Calm - N/A   Partly Cloudy
5:58 AM 39.9 °F 37.4 °F 91% 30.04 in 10.0 mi Calm Calm - N/A   Clear
6:58 AM 35.8 °F 33.4 °F 91% 30.06 in 10.0 mi Calm Calm - N/A   Clear
7:58 AM 41.7 °F 39.2 °F 91% 30.09 in 10.0 mi Calm Calm - N/A   Clear
8:58 AM 53.1 °F 44.2 °F 72% 30.09 in 10.0 mi Calm Calm - N/A   Clear
9:58 AM 61.0 °F 47.8 °F 62% 30.09 in 10.0 mi Calm Calm - N/A   Clear
10:58 AM 69.1 °F 49.8 °F 50% 30.09 in 10.0 mi Calm Calm - N/A   Clear
11:58 AM 75.7 °F 46.8 °F 36% 30.08 in 10.0 mi Variable 2.3 mph - N/A   Clear
12:58 PM 78.8 °F 44.8 °F 30% 30.05 in 10.0 mi Variable 2.3 mph - N/A   Clear
1:58 PM 80.6 °F 48.4 °F 32% 30.04 in 10.0 mi Variable 4.6 mph - N/A   Clear
2:58 PM 82.0 °F 48.4 °F 31% 30.01 in 10.0 mi NNW 4.6 mph - N/A   Clear
3:58 PM 82.0 °F 48.4 °F 31% 30.01 in 10.0 mi Variable 1.2 mph - N/A   Clear
4:58 PM 80.6 °F 50.7 °F 35% 30.01 in 10.0 mi NW 10.4 mph - N/A   Clear
5:58 PM 75.6 °F 49.1 °F 39% 30.02 in 10.0 mi WNW 10.4 mph - N/A   Clear
6:58 PM 63.5 °F 46.4 °F 54% 30.04 in 10.0 mi WNW 6.9 mph - N/A   Clear
7:58 PM 59.2 °F 42.4 °F 54% 30.07 in 10.0 mi WNW 3.5 mph - N/A   Clear
8:58 PM 54.0 °F 43.5 °F 68% 30.09 in 10.0 mi NW 4.6 mph - N/A   Clear
9:58 PM 53.1 °F 43.7 °F 71% 30.10 in 10.0 mi West 2.3 mph - N/A   Clear
10:58 PM 47.8 °F 42.4 °F 82% 30.11 in 10.0 mi Calm Calm - N/A   Clear
11:58 PM 47.5 °F 42.1 °F 82% 30.12 in 10.0 mi Calm Calm - N/A   Clear